User: anonymous   Login
Location: Unspecified
(0.0000°N, 0.0000°E)
Time: 23:58:37
(UTC+00:00)
Language:

STARLINK-32806 - Orbit

View from above orbital plane
View from above orbital plane
View from above satellite
View from above satellite

Ground track
Ground track

The orbit is defined by the following mean orbital elements,

1 62735U          26145.50792338 +.00000000 +00000-0 +77159-3 0 00003
2 62735  42.9994  80.7441 0000670 242.3714 117.7069 15.27588147    01
Epoch (UTC): 25 May 2026 12:11:24
Eccentricity: 0.0000670
inclination: 42.9994°
perigee height: 483 km
apogee height: 483 km
right ascension of ascending node: 80.7441°
argument of perigee: 242.3714°
revolutions per day: 15.27588147
mean anomaly at epoch: 117.7069°

The dashed part of the orbit path shows where the satellite is in the earth's shadow,  

DLR